QPF
0.01 0.01 0.01 0.01 0.00 0.00 0.00 0.00 0.01 0.01 0.01 0.01 0.01 0.01 0.01 0.01 0.02 0.02 0.02 0.02 0.02 0.02 0.02 0.02 0.02 0.02 0.02 0.02 0.02 0.03 0.05 0.04 0.05 0.06 0.07 0.09 0.09 0.09 0.07 0.06 0.06 0.05 0.04 0.03
0.02 0.01 0.00 0.00 0.00 0.01 0.01 0.01 0.01 0.01 0.01 0.01 0.01 0.01 0.01 0.02 0.03 0.03 0.02 0.02 0.02 0.01 0.01 0.01 0.02 0.02 0.02 0.01 0.01 0.02 0.03 0.04 0.04 0.04 0.04 0.05 0.07 0.09 0.09 0.07 0.07 0.08 0.08 0.07
0.02 0.01 0.00 0.01 0.01 0.01 0.01 0.00 0.01 0.01 0.01 0.01 0.01 0.01 0.01 0.02 0.02 0.02 0.01 0.01 0.01 0.01 0.01 0.01 0.01 0.02 0.02 0.02 0.01 0.01 0.01 0.03 0.03 0.05 0.06 0.05 0.05 0.04 0.04 0.05 0.05 0.06 0.07 0.08
0.02 0.01 0.00 0.01 0.01 0.01 0.01 0.00 0.00 0.01 0.01 0.01 0.01 0.01 0.02 0.01 0.01 0.01 0.01 0.01 0.01 0.01 0.01 0.01 0.01 0.02 0.02 0.02 0.02 0.01 0.01 0.01 0.02 0.03 0.06 0.08 0.05 0.03 0.02 0.02 0.02 0.03 0.04 0.04
0.01 0.01 0.01 0.01 0.01 0.00 0.00 0.00 0.00 0.01 0.02 0.02 0.01 0.01 0.01 0.00 0.01 0.01 0.01 0.01 0.01 0.01 0.01 0.01 0.01 0.01 0.01 0.02 0.02 0.02 0.01 0.01 0.01 0.01 0.02 0.06 0.09 0.07 0.03 0.03 0.03 0.03 0.03 0.04
0.01 0.01 0.01 0.01 0.00 0.01 0.01 0.01 0.02 0.02 0.03 0.03 0.01 0.00 0.00 0.00 0.01 0.00 0.00 0.01 0.01 0.01 0.01 0.02 0.02 0.02 0.02 0.01 0.01 0.01 0.01 0.01 0.01 0.00 0.01 0.02 0.05 0.09 0.08 0.05 0.04 0.03 0.03 0.04
0.02 0.01 0.01 0.00 0.01 0.01 0.02 0.03 0.04 0.04 0.03 0.02 0.00 0.00 0.00 0.01 0.00 0.00 0.00 0.00 0.00 0.00 0.01 0.02 0.02 0.02 0.03 0.02 0.01 0.01 0.01 0.01 0.01 0.00 0.00 0.00 0.01 0.03 0.07 0.07 0.06 0.06 0.04 0.03
0.02 0.01 0.01 0.01 0.01 0.01 0.02 0.02 0.02 0.02 0.01 0.00 0.00 0.00 0.01 0.01 0.01 0.00 0.00 0.00 0.00 0.00 0.00 0.01 0.01 0.01 0.01 0.02 0.01 0.01 0.01 0.01 0.01 0.00 0.00 0.00 0.00 0.01 0.02 0.04 0.05 0.07 0.07 0.04
0.02 0.01 0.01 0.00 0.01 0.01 0.02 0.02 0.01 0.01 0.01 0.01 0.01 0.01 0.01 0.00 0.01 0.01 0.00 0.00 0.00 0.00 0.00 0.01 0.00 0.01 0.01 0.01 0.01 0.01 0.00 0.00 0.01 0.01 0.01 0.01 0.00 0.00 0.01 0.02 0.02 0.03 0.05 0.06
0.02 0.02 0.01 0.00 0.00 0.01 0.01 0.01 0.01 0.02 0.03 0.02 0.01 0.00 0.00 0.00 0.01 0.01 0.00 0.00 0.00 0.00 0.00 0.00 0.00 0.00 0.01 0.00 0.00 0.00 0.00 0.01 0.01 0.01 0.01 0.01 0.00 0.00 0.01 0.01 0.01 0.01 0.02 0.04
0.03 0.04 0.03 0.01 0.01 0.00 0.01 0.01 0.01 0.02 0.02 0.01 0.01 0.00 0.01 0.01 0.01 0.01 0.00 0.00 0.00 0.00 0.00 0.00 0.00 0.00 0.01 0.01 0.01 0.01 0.00 0.01 0.01 0.01 0.01 0.01 0.01 0.00 0.00 0.01 0.01 0.02 0.02 0.03
0.02 0.04 0.04 0.02 0.01 0.01 0.00 0.01 0.01 0.02 0.02 0.01 0.00 0.00 0.01 0.01 0.01 0.00 0.00 0.00 0.00 0.00 0.00 0.00 0.00 0.00 0.00 0.01 0.01 0.00 0.00 0.01 0.01 0.01 0.01 0.01 0.00 0.00 0.00 0.01 0.01 0.01 0.02 0.03
0.05 0.07 0.06 0.04 0.02 0.02 0.01 0.01 0.01 0.01 0.01 0.01 0.01 0.00 0.00 0.00 0.00 0.00 0.00 0.00 0.00 0.00 0.00 0.00 0.00 0.00 0.00 0.00 0.00 0.00 0.00 0.00 0.01 0.01 0.01 0.00 0.00 0.00 0.00 0.00 0.00 0.01 0.01 0.02
0.07 0.11 0.07 0.04 0.02 0.02 0.02 0.02 0.01 0.02 0.03 0.02 0.01 0.00 0.00 0.00 0.00 0.00 0.00 0.00 0.00 0.00 0.00 0.00 0.00 0.00 0.00 0.00 0.00 0.00 0.00 0.00 0.01 0.01 0.01 0.00 0.00 0.00 0.00 0.00 0.00 0.01 0.02 0.02
0.07 0.09 0.05 0.03 0.02 0.03 0.03 0.02 0.02 0.02 0.02 0.02 0.01 0.00 0.00 0.00 0.00 0.00 0.00 0.00 0.00 0.00 0.00 0.00 0.00 0.00 0.00 0.00 0.00 0.00 0.00 0.01 0.01 0.01 0.01 0.00 0.00 0.00 0.00 0.00 0.00 0.00 0.01 0.02
0.06 0.06 0.04 0.02 0.01 0.02 0.03 0.02 0.02 0.02 0.02 0.02 0.01 0.01 0.00 0.00 0.00 0.00 0.00 0.00 0.00 0.00 0.00 0.00 0.00 0.00 0.00 0.00 0.00 0.00 0.00 0.00 0.01 0.01 0.00 0.00 0.00 0.00 0.00 0.00 0.00 0.01 0.01 0.01
0.05 0.05 0.05 0.03 0.01 0.02 0.03 0.01 0.01 0.01 0.01 0.01 0.01 0.01 0.00 0.00 0.00 0.00 0.00 0.00 0.00 0.00 0.00 0.00 0.00 0.00 0.00 0.00 0.00 0.00 0.00 0.00 0.00 0.00 0.00 0.00 0.00 0.01 0.01 0.01 0.01 0.01 0.01 0.01
0.04 0.04 0.05 0.04 0.02 0.03 0.01 0.00 0.00 0.00 0.00 0.00 0.00 0.00 0.00 0.00 0.00 0.00 0.00 0.00 0.00 0.00 0.00 0.00 0.00 0.00 0.00 0.00 0.00 0.00 0.00 0.00 0.00 0.00 0.00 0.00 0.00 0.01 0.01 0.01 0.01 0.01 0.01 0.01
0.02 0.04 0.07 0.06 0.04 0.02 0.00 0.00 0.00 0.00 0.01 0.00 0.00 0.00 0.00 0.00 0.00 0.00 0.00 0.00 0.00 0.00 0.00 0.00 0.00 0.00 0.00 0.00 0.00 0.00 0.00 0.00 0.00 0.00 0.00 0.00 0.00 0.01 0.01 0.01 0.01 0.01 0.01 0.01
0.03 0.04 0.07 0.06 0.05 0.02 0.00 0.00 0.00 0.00 0.01 0.00 0.00 0.00 0.00 0.00 0.00 0.00 0.00 0.00 0.00 0.00 0.00 0.00 0.00 0.00 0.00 0.00 0.00 0.00 0.00 0.00 0.00 0.00 0.00 0.00 0.01 0.01 0.01 0.01 0.01 0.02 0.01 0.01
0.03 0.05 0.06 0.04 0.03 0.01 0.00 0.00 0.00 0.00 0.00 0.00 0.00 0.00 0.00 0.00 0.00 0.00 0.00 0.00 0.00 0.00 0.00 0.00 0.00 0.00 0.00 0.00 0.00 0.00 0.00 0.00 0.00 0.00 0.00 0.01 0.01 0.01 0.01 0.01 0.01 0.02 0.02 0.02
0.01 0.02 0.02 0.02 0.03 0.01 0.00 0.00 0.00 0.00 0.00 0.00 0.00 0.00 0.00 0.00 0.00 0.00 0.00 0.00 0.00 0.00 0.00 0.00 0.00 0.00 0.00 0.00 0.00 0.00 0.00 0.00 0.00 0.00 0.00 0.01 0.01 0.01 0.01 0.01 0.01 0.02 0.02 0.02
0.01 0.01 0.01 0.01 0.01 0.00 0.00 0.00 0.00 0.00 0.00 0.00 0.00 0.00 0.00 0.00 0.00 0.00 0.00 0.00 0.00 0.00 0.00 0.00 0.00 0.00 0.00 0.00 0.00 0.00 0.00 0.00 0.01 0.01 0.01 0.01 0.01 0.01 0.01 0.01 0.01 0.02 0.02 0.03
0.00 0.00 0.01 0.01 0.01 0.00 0.00 0.00 0.00 0.00 0.00 0.00 0.00 0.00 0.00 0.00 0.00 0.00 0.00 0.00 0.00 0.00 0.00 0.00 0.00 0.00 0.00 0.00 0.00 0.00 0.00 0.01 0.01 0.01 0.01 0.01 0.01 0.01 0.02 0.02 0.02 0.02 0.02 0.02
0.00 0.01 0.01 0.01 0.00 0.00 0.00 0.00 0.00 0.00 0.00 0.00 0.00 0.00 0.00 0.00 0.00 0.00 0.01 0.01 0.01 0.01 0.01 0.01 0.01 0.01 0.01 0.01 0.01 0.01 0.01 0.01 0.01 0.01 0.01 0.01 0.02 0.01 0.01 0.02 0.02 0.02 0.02 0.02
0.01 0.01 0.01 0.01 0.00 0.00 0.00 0.00 0.00 0.00 0.00 0.00 0.00 0.00 0.00 0.00 0.00 0.00 0.00 0.01 0.01 0.01 0.01 0.01 0.01 0.01 0.01 0.01 0.01 0.01 0.01 0.01 0.01 0.02 0.02 0.02 0.02 0.02 0.02 0.02 0.03 0.03 0.02 0.02
MSLP
1014.51 1014.30 1013.99 1013.59 1013.15 1012.72 1012.32 1011.95 1011.60 1011.22 1010.79 1010.26 1009.61 1008.87 1008.06 1007.25 1006.48 1005.81 1005.29 1004.91 1004.67 1004.52 1004.42 1004.30 1004.14 1003.90 1003.61 1003.30 1003.01 1002.80 1002.72 1002.81 1003.07 1003.49 1004.05 1004.70 1005.40 1006.12 1006.82 1007.50 1008.17 1008.83 1009.52 1010.25
1014.59 1014.32 1013.93 1013.47 1013.00 1012.57 1012.19 1011.87 1011.57 1011.23 1010.81 1010.25 1009.56 1008.74 1007.84 1006.94 1006.13 1005.46 1004.97 1004.68 1004.54 1004.51 1004.51 1004.45 1004.29 1004.01 1003.61 1003.14 1002.67 1002.27 1002.02 1001.97 1002.13 1002.50 1003.03 1003.70 1004.43 1005.19 1005.93 1006.65 1007.35 1008.03 1008.73 1009.47
1014.59 1014.25 1013.80 1013.30 1012.82 1012.41 1012.09 1011.83 1011.59 1011.30 1010.89 1010.32 1009.58 1008.68 1007.71 1006.75 1005.89 1005.23 1004.80 1004.60 1004.59 1004.69 1004.80 1004.83 1004.70 1004.38 1003.89 1003.28 1002.63 1002.04 1001.60 1001.38 1001.40 1001.66 1002.14 1002.78 1003.51 1004.29 1005.06 1005.80 1006.52 1007.22 1007.94 1008.68
1014.49 1014.08 1013.58 1013.07 1012.61 1012.26 1012.02 1011.86 1011.70 1011.48 1011.11 1010.54 1009.75 1008.80 1007.75 1006.73 1005.84 1005.19 1004.81 1004.70 1004.80 1005.03 1005.27 1005.38 1005.30 1004.98 1004.43 1003.72 1002.92 1002.16 1001.54 1001.14 1001.01 1001.14 1001.52 1002.09 1002.78 1003.53 1004.29 1005.04 1005.77 1006.48 1007.19 1007.93
1014.24 1013.77 1013.24 1012.74 1012.35 1012.09 1011.98 1011.95 1011.93 1011.81 1011.50 1010.94 1010.14 1009.13 1008.02 1006.94 1006.01 1005.34 1004.98 1004.94 1005.13 1005.47 1005.81 1006.02 1006.01 1005.72 1005.17 1004.40 1003.51 1002.63 1001.86 1001.31 1001.03 1001.02 1001.27 1001.73 1002.34 1003.02 1003.74 1004.46 1005.16 1005.86 1006.56 1007.29
1013.83 1013.30 1012.77 1012.32 1012.02 1011.90 1011.95 1012.10 1012.24 1012.25 1012.03 1011.53 1010.73 1009.69 1008.53 1007.38 1006.39 1005.68 1005.31 1005.28 1005.51 1005.91 1006.34 1006.63 1006.70 1006.48 1005.96 1005.20 1004.30 1003.37 1002.52 1001.87 1001.46 1001.32 1001.44 1001.77 1002.26 1002.84 1003.47 1004.12 1004.77 1005.42 1006.09 1006.78
1013.26 1012.69 1012.17 1011.78 1011.61 1011.66 1011.90 1012.25 1012.58 1012.74 1012.65 1012.22 1011.45 1010.40 1009.20 1007.99 1006.94 1006.16 1005.73 1005.65 1005.87 1006.28 1006.73 1007.09 1007.23 1007.10 1006.67 1005.99 1005.14 1004.24 1003.40 1002.70 1002.23 1001.99 1001.99 1002.18 1002.54 1002.99 1003.50 1004.05 1004.61 1005.18 1005.79 1006.42
1012.57 1011.96 1011.45 1011.15 1011.10 1011.33 1011.77 1012.32 1012.84 1013.18 1013.22 1012.89 1012.18 1011.16 1009.94 1008.68 1007.55 1006.68 1006.16 1005.99 1006.14 1006.50 1006.94 1007.31 1007.52 1007.48 1007.17 1006.62 1005.90 1005.11 1004.34 1003.69 1003.20 1002.91 1002.81 1002.89 1003.10 1003.42 1003.79 1004.20 1004.65 1005.13 1005.64 1006.21
1011.81 1011.16 1010.68 1010.44 1010.52 1010.90 1011.52 1012.25 1012.94 1013.44 1013.62 1013.40 1012.77 1011.79 1010.58 1009.30 1008.12 1007.17 1006.53 1006.25 1006.28 1006.54 1006.92 1007.28 1007.52 1007.57 1007.39 1007.01 1006.47 1005.84 1005.22 1004.66 1004.22 1003.93 1003.78 1003.76 1003.85 1004.01 1004.24 1004.51 1004.83 1005.19 1005.61 1006.09
1011.06 1010.37 1009.89 1009.71 1009.87 1010.36 1011.10 1011.96 1012.78 1013.40 1013.69 1013.58 1013.05 1012.15 1011.00 1009.74 1008.54 1007.53 1006.80 1006.39 1006.29 1006.43 1006.72 1007.03 1007.28 1007.40 1007.35 1007.14 1006.79 1006.37 1005.92 1005.50 1005.15 1004.89 1004.72 1004.63 1004.61 1004.65 1004.74 1004.87 1005.06 1005.31 1005.63 1006.02
1010.39 1009.66 1009.17 1009.00 1009.19 1009.72 1010.50 1011.41 1012.29 1012.97 1013.34 1013.32 1012.89 1012.10 1011.05 1009.87 1008.71 1007.70 1006.93 1006.44 1006.22 1006.24 1006.42 1006.67 1006.91 1007.07 1007.12 1007.06 1006.90 1006.66 1006.40 1006.13 1005.88 1005.67 1005.50 1005.36 1005.26 1005.19 1005.16 1005.18 1005.26 1005.41 1005.64 1005.95
1009.85 1009.06 1008.54 1008.34 1008.51 1009.00 1009.74 1010.61 1011.45 1012.14 1012.54 1012.58 1012.26 1011.61 1010.71 1009.66 1008.62 1007.68 1006.93 1006.41 1006.13 1006.06 1006.15 1006.33 1006.54 1006.71 1006.84 1006.89 1006.87 1006.80 1006.68 1006.54 1006.38 1006.21 1006.04 1005.86 1005.69 1005.54 1005.42 1005.35 1005.34 1005.42 1005.59 1005.85
1009.46 1008.63 1008.04 1007.78 1007.85 1008.23 1008.85 1009.59 1010.33 1010.94 1011.33 1011.42 1011.20 1010.70 1009.98 1009.13 1008.27 1007.48 1006.82 1006.35 1006.07 1005.97 1006.00 1006.12 1006.29 1006.47 1006.62 1006.74 1006.82 1006.84 1006.82 1006.76 1006.65 1006.50 1006.31 1006.09 1005.86 1005.65 1005.46 1005.33 1005.29 1005.33 1005.47 1005.71
1009.23 1008.34 1007.68 1007.31 1007.25 1007.46 1007.89 1008.44 1009.01 1009.50 1009.82 1009.93 1009.80 1009.46 1008.96 1008.35 1007.73 1007.15 1006.67 1006.31 1006.09 1006.00 1006.02 1006.11 1006.25 1006.41 1006.57 1006.70 1006.81 1006.88 1006.89 1006.84 1006.73 1006.56 1006.33 1006.06 1005.78 1005.52 1005.30 1005.15 1005.09 1005.14 1005.30 1005.55
1009.14 1008.18 1007.44 1006.94 1006.70 1006.71 1006.91 1007.23 1007.60 1007.93 1008.17 1008.28 1008.23 1008.06 1007.78 1007.44 1007.08 1006.76 1006.49 1006.30 1006.20 1006.17 1006.21 1006.30 1006.42 1006.55 1006.69 1006.81 1006.90 1006.95 1006.94 1006.85 1006.69 1006.46 1006.17 1005.84 1005.51 1005.21 1004.97 1004.83 1004.80 1004.89 1005.10 1005.40
1009.12 1008.10 1007.26 1006.63 1006.22 1006.01 1005.98 1006.06 1006.22 1006.39 1006.54 1006.64 1006.67 1006.65 1006.59 1006.51 1006.43 1006.37 1006.33 1006.33 1006.37 1006.43 1006.52 1006.62 1006.74 1006.85 1006.95 1007.04 1007.08 1007.08 1007.00 1006.84 1006.59 1006.28 1005.90 1005.51 1005.13 1004.80 1004.57 1004.46 1004.48 1004.64 1004.92 1005.30
1009.12 1008.05 1007.12 1006.35 1005.77 1005.36 1005.11 1004.99 1004.96 1004.99 1005.07 1005.16 1005.27 1005.39 1005.53 1005.68 1005.85 1006.02 1006.20 1006.38 1006.55 1006.71 1006.86 1006.99 1007.10 1007.20 1007.28 1007.32 1007.31 1007.23 1007.07 1006.82 1006.49 1006.08 1005.62 1005.16 1004.74 1004.40 1004.18 1004.12 1004.21 1004.45 1004.82 1005.27
1009.09 1007.94 1006.92 1006.04 1005.31 1004.74 1004.31 1004.03 1003.86 1003.80 1003.82 1003.94 1004.12 1004.37 1004.67 1005.01 1005.38 1005.74 1006.10 1006.42 1006.70 1006.94 1007.14 1007.29 1007.42 1007.51 1007.56 1007.57 1007.51 1007.38 1007.16 1006.83 1006.41 1005.93 1005.41 1004.89 1004.44 1004.10 1003.91 1003.89 1004.05 1004.37 1004.82 1005.35
1008.94 1007.72 1006.61 1005.62 1004.78 1004.09 1003.54 1003.15 1002.90 1002.79 1002.81 1002.96 1003.23 1003.59 1004.03 1004.51 1005.02 1005.52 1005.99 1006.40 1006.75 1007.04 1007.27 1007.45 1007.59 1007.68 1007.73 1007.73 1007.66 1007.50 1007.23 1006.86 1006.40 1005.87 1005.31 1004.77 1004.31 1003.97 1003.81 1003.84 1004.05 1004.43 1004.95 1005.54
1008.62 1007.34 1006.14 1005.07 1004.13 1003.35 1002.74 1002.29 1002.02 1001.91 1001.96 1002.18 1002.52 1002.98 1003.53 1004.12 1004.73 1005.31 1005.84 1006.30 1006.69 1007.00 1007.25 1007.44 1007.59 1007.70 1007.77 1007.78 1007.72 1007.57 1007.30 1006.93 1006.46 1005.93 1005.36 1004.82 1004.37 1004.06 1003.92 1003.98 1004.23 1004.66 1005.21 1005.84
1008.12 1006.76 1005.49 1004.34 1003.34 1002.51 1001.86 1001.40 1001.14 1001.06 1001.18 1001.47 1001.90 1002.46 1003.09 1003.76 1004.43 1005.06 1005.62 1006.09 1006.49 1006.81 1007.06 1007.27 1007.44 1007.58 1007.68 1007.74 1007.72 1007.61 1007.38 1007.05 1006.61 1006.10 1005.57 1005.06 1004.63 1004.34 1004.23 1004.31 1004.58 1005.02 1005.58 1006.22
1007.43 1006.01 1004.68 1003.48 1002.44 1001.57 1000.90 1000.45 1000.21 1000.19 1000.37 1000.74 1001.26 1001.90 1002.61 1003.34 1004.06 1004.71 1005.29 1005.78 1006.18 1006.50 1006.77 1007.00 1007.20 1007.38 1007.53 1007.64 1007.68 1007.64 1007.48 1007.21 1006.83 1006.38 1005.90 1005.44 1005.05 1004.79 1004.70 1004.79 1005.06 1005.49 1006.04 1006.66
1006.62 1005.17 1003.81 1002.57 1001.50 1000.61 999.93 999.48 999.26 999.28 999.52 999.95 1000.54 1001.25 1002.02 1002.81 1003.57 1004.26 1004.86 1005.37 1005.79 1006.14 1006.43 1006.69 1006.94 1007.17 1007.38 1007.55 1007.66 1007.69 1007.61 1007.41 1007.11 1006.74 1006.32 1005.91 1005.57 1005.34 1005.26 1005.36 1005.62 1006.02 1006.55 1007.14
1005.80 1004.37 1003.01 1001.77 1000.67 999.76 999.07 998.60 998.39 998.42 998.67 999.14 999.77 1000.52 1001.35 1002.18 1002.99 1003.72 1004.37 1004.92 1005.38 1005.77 1006.10 1006.42 1006.71 1007.00 1007.27 1007.51 1007.69 1007.78 1007.77 1007.65 1007.42 1007.11 1006.76 1006.41 1006.11 1005.92 1005.86 1005.95 1006.20 1006.58 1007.08 1007.64
1005.14 1003.78 1002.47 1001.26 1000.16 999.24 998.51 998.01 997.75 997.74 997.98 998.43 999.06 999.83 1000.67 1001.54 1002.38 1003.17 1003.87 1004.48 1005.00 1005.45 1005.85 1006.22 1006.58 1006.92 1007.24 1007.53 1007.76 1007.91 1007.95 1007.88 1007.71 1007.47 1007.18 1006.88 1006.63 1006.47 1006.43 1006.53 1006.77 1007.14 1007.61 1008.15
1004.82 1003.61 1002.41 1001.25 1000.18 999.24 998.47 997.90 997.57 997.48 997.64 998.02 998.60 999.33 1000.16 1001.03 1001.90 1002.72 1003.47 1004.13 1004.72 1005.24 1005.70 1006.13 1006.54 1006.92 1007.29 1007.61 1007.86 1008.04 1008.12 1008.09 1007.97 1007.77 1007.53 1007.29 1007.08 1006.96 1006.95 1007.06 1007.31 1007.68 1008.14 1008.68
Thickness
5524 5518 5515 5517 5519 5522 5517 5512 5511 5514 5514 5510 5511 5517 5526 5527 5523 5525 5527 5528 5529 5531 5534 5534 5535 5535 5536 5538 5538 5539 5539 5539 5539 5538 5538 5538 5537 5537 5536 5536 5536 5536 5536 5536
5512 5511 5514 5514 5512 5512 5508 5507 5505 5507 5507 5504 5503 5510 5518 5520 5519 5522 5524 5524 5525 5525 5526 5527 5526 5526 5527 5527 5529 5530 5530 5529 5529 5529 5529 5528 5528 5526 5525 5525 5525 5525 5526 5526
5510 5509 5508 5508 5504 5504 5504 5501 5501 5500 5498 5496 5494 5509 5515 5518 5516 5516 5516 5518 5519 5520 5519 5519 5518 5517 5516 5517 5519 5521 5520 5520 5520 5520 5519 5519 5517 5516 5515 5515 5514 5514 5515 5515
5497 5500 5502 5501 5499 5498 5499 5499 5497 5494 5487 5485 5488 5494 5513 5511 5511 5512 5511 5510 5512 5513 5512 5511 5510 5509 5509 5509 5509 5510 5510 5510 5510 5509 5509 5509 5507 5505 5504 5504 5504 5503 5503 5504
5493 5493 5494 5495 5495 5493 5492 5492 5488 5486 5480 5475 5475 5475 5503 5501 5506 5510 5509 5507 5506 5505 5504 5503 5502 5502 5501 5500 5499 5499 5500 5499 5499 5499 5499 5498 5496 5495 5494 5493 5493 5492 5492 5492
5487 5486 5486 5488 5488 5486 5482 5481 5477 5467 5464 5464 5475 5469 5490 5494 5504 5506 5505 5502 5499 5497 5495 5493 5492 5491 5491 5490 5489 5489 5489 5489 5488 5487 5487 5487 5486 5484 5483 5482 5482 5481 5481 5481
5481 5481 5479 5479 5480 5478 5476 5472 5462 5457 5444 5457 5465 5463 5483 5497 5497 5497 5496 5494 5490 5487 5485 5483 5482 5481 5480 5479 5478 5478 5477 5477 5476 5476 5475 5475 5474 5473 5472 5471 5471 5469 5468 5468
5472 5475 5473 5470 5474 5470 5469 5470 5462 5456 5452 5450 5452 5458 5484 5488 5485 5484 5483 5482 5481 5479 5476 5475 5473 5471 5470 5469 5467 5466 5466 5465 5464 5464 5463 5462 5461 5460 5459 5459 5458 5457 5456 5455
5461 5467 5465 5464 5464 5465 5459 5454 5456 5442 5421 5424 5442 5453 5468 5479 5479 5477 5476 5474 5473 5471 5468 5465 5463 5461 5459 5458 5457 5456 5455 5454 5453 5452 5451 5450 5449 5448 5446 5445 5445 5443 5443 5442
5451 5449 5454 5451 5453 5451 5452 5447 5436 5433 5428 5428 5439 5447 5467 5477 5477 5473 5470 5468 5465 5462 5458 5455 5453 5451 5449 5448 5446 5445 5444 5443 5442 5440 5439 5438 5437 5435 5434 5432 5431 5430 5430 5429
5439 5437 5440 5439 5438 5442 5437 5435 5433 5426 5421 5423 5426 5456 5468 5470 5468 5464 5461 5458 5455 5452 5449 5445 5443 5442 5440 5437 5435 5434 5433 5432 5431 5429 5428 5426 5425 5423 5421 5420 5418 5417 5417 5417
5428 5422 5423 5429 5430 5430 5430 5433 5429 5427 5415 5410 5422 5451 5464 5457 5453 5452 5450 5448 5445 5441 5438 5435 5432 5431 5429 5427 5426 5424 5423 5422 5421 5419 5417 5416 5413 5411 5409 5407 5405 5404 5404 5404
5416 5413 5415 5425 5421 5413 5413 5415 5415 5415 5408 5399 5408 5444 5450 5445 5443 5442 5439 5436 5434 5431 5428 5424 5421 5420 5419 5417 5416 5415 5413 5412 5410 5408 5407 5404 5402 5400 5397 5395 5393 5392 5392 5392
5413 5404 5413 5427 5429 5411 5403 5403 5401 5402 5403 5402 5413 5438 5445 5440 5436 5434 5431 5427 5424 5421 5419 5415 5412 5410 5410 5408 5407 5405 5403 5401 5399 5397 5395 5393 5392 5389 5386 5384 5382 5381 5380 5380
5400 5395 5391 5399 5402 5397 5400 5403 5396 5396 5406 5408 5424 5424 5442 5438 5431 5427 5424 5419 5416 5415 5412 5409 5405 5403 5401 5400 5398 5395 5393 5390 5388 5386 5384 5383 5381 5378 5375 5373 5371 5370 5369 5368
5385 5381 5375 5379 5383 5382 5387 5396 5396 5396 5397 5399 5406 5418 5432 5427 5420 5415 5413 5412 5409 5408 5406 5403 5399 5397 5394 5392 5389 5386 5383 5381 5378 5376 5374 5372 5370 5367 5365 5363 5361 5359 5357 5356
5373 5368 5369 5373 5365 5372 5384 5399 5397 5394 5395 5397 5403 5423 5421 5413 5409 5407 5404 5403 5402 5400 5398 5395 5392 5389 5386 5382 5380 5376 5373 5370 5368 5366 5364 5362 5359 5357 5355 5352 5350 5348 5347 5345
5364 5360 5354 5350 5356 5373 5417 5408 5402 5399 5400 5396 5402 5408 5406 5405 5402 5397 5395 5393 5393 5391 5389 5386 5383 5379 5375 5372 5369 5366 5363 5360 5358 5356 5353 5351 5349 5347 5344 5342 5340 5338 5337 5335
5361 5356 5344 5341 5350 5367 5394 5396 5391 5387 5393 5396 5394 5397 5393 5387 5385 5389 5390 5386 5384 5381 5378 5375 5372 5368 5364 5361 5358 5355 5352 5350 5347 5345 5343 5341 5339 5337 5334 5333 5331 5329 5326 5325
5345 5345 5337 5332 5344 5360 5402 5393 5386 5384 5385 5395 5388 5387 5382 5376 5377 5389 5386 5378 5374 5369 5366 5363 5359 5355 5353 5350 5347 5345 5342 5340 5338 5337 5334 5332 5329 5327 5325 5323 5321 5319 5317 5315
5333 5329 5329 5327 5333 5358 5383 5376 5375 5375 5392 5390 5381 5378 5372 5369 5375 5376 5370 5366 5362 5359 5355 5352 5348 5345 5343 5340 5337 5334 5331 5330 5329 5326 5324 5321 5319 5317 5315 5312 5310 5308 5306 5304
5336 5326 5321 5319 5325 5359 5371 5363 5370 5381 5378 5373 5370 5367 5363 5362 5360 5358 5356 5354 5351 5347 5344 5341 5338 5335 5332 5329 5326 5324 5322 5321 5318 5315 5313 5311 5309 5306 5304 5302 5299 5297 5295 5292
5338 5347 5343 5345 5364 5370 5361 5363 5364 5361 5360 5359 5357 5356 5353 5350 5348 5346 5345 5342 5340 5337 5334 5331 5327 5324 5321 5318 5316 5314 5313 5310 5307 5304 5302 5300 5298 5295 5293 5291 5289 5286 5284 5282
5328 5331 5330 5331 5349 5351 5348 5349 5348 5345 5345 5345 5343 5342 5341 5338 5337 5334 5333 5331 5328 5326 5322 5319 5315 5312 5310 5307 5305 5304 5302 5299 5296 5294 5292 5290 5287 5285 5282 5280 5279 5277 5275 5273
5329 5317 5318 5324 5337 5337 5340 5338 5338 5335 5331 5329 5329 5328 5328 5327 5326 5323 5322 5320 5317 5314 5310 5307 5304 5301 5299 5296 5294 5292 5290 5288 5285 5283 5281 5279 5277 5274 5272 5270 5268 5267 5267 5265
5317 5313 5318 5333 5333 5328 5337 5334 5329 5324 5322 5320 5317 5315 5314 5313 5313 5311 5308 5306 5303 5300 5297 5294 5291 5289 5287 5284 5283 5281 5279 5277 5274 5273 5270 5268 5266 5263 5261 5258 5257 5256 5256 5255